contact:dominique.lefevre@mio.osupytheas.fr, maurice.libes@osupytheas.fr
Project:EMSO Ligure-ouest http://www.emso-fr.org/EMSO-France
Sensor Aquadopp, line 13 Serial AQD14315 
DOI : "https://doi.org/10.17882/74513; https://doi.org/10.17882/83244" 
Title:EMSO Ligure Ouest : Data ligne ALBATROSS capteur AQUADOPP - deploiement 2021
Id,Date,Profondeur,Latitude,Longitude,X_East,Y_North,Z_Up,Amplitude_X,Amplitude_Y,Amplitude_Z,Batterie,SoundSpeed,Heading,Pitch,Roll,Pressure,Temperature,Speed,Direction
, , m, degrees North, degrees East, m.s-1, m.s-1,m.s-1, 1, 1, 1, Volt, m.s-1, degree, degree, degree, dbar, degree_C, m.s-1, degree
11,2021-12-24T22:00:00,2200.0,42.79,6.0312,0.006,0.014,0.004,53.0,55.0,54.0,12.5,1504.2,301.1,-0.6,-0.1,2193.018,13.16,0.015,23.2
11,2021-12-24T22:30:00,2200.0,42.79,6.0312,0.004,0.012,0.012,54.0,55.0,57.0,12.5,1504.2,299.1,-0.7,0.0,2193.045,13.16,0.012,18.4
11,2021-12-24T23:00:00,2200.0,42.79,6.0312,0.003,0.007,0.005,55.0,54.0,58.0,12.5,1504.2,304.2,-0.5,0.1,2193.035,13.16,0.007,23.2
11,2021-12-24T23:30:00,2200.0,42.79,6.0312,0.0,-0.002,0.002,58.0,56.0,54.0,12.5,1504.2,304.5,-0.6,0.0,2193.039,13.16,0.002,180.0
11,2021-12-25T00:00:00,2200.0,42.79,6.0312,-0.013,0.007,-0.003,52.0,52.0,58.0,12.5,1504.2,304.8,-0.5,0.1,2192.991,13.16,0.014,298.3
11,2021-12-25T00:30:00,2200.0,42.79,6.0312,-0.005,0.013,0.014,55.0,55.0,57.0,12.5,1504.2,303.8,-0.6,0.0,2192.981,13.16,0.013,339.0
11,2021-12-25T01:00:00,2200.0,42.79,6.0312,-0.004,0.01,0.0,54.0,56.0,56.0,12.5,1504.2,306.7,-0.4,0.1,2192.986,13.16,0.01,338.2
11,2021-12-25T01:30:00,2200.0,42.79,6.0312,-0.007,0.006,0.013,55.0,54.0,57.0,12.5,1504.2,308.8,-0.6,0.2,2192.967,13.16,0.009,310.6
11,2021-12-25T02:00:00,2200.0,42.79,6.0312,-0.002,0.001,0.005,52.0,55.0,60.0,12.5,1504.2,308.1,-0.4,-0.1,2193.022,13.16,0.002,296.6
11,2021-12-25T02:30:00,2200.0,42.79,6.0312,-0.017,0.006,0.022,55.0,53.0,60.0,12.5,1504.2,307.1,-0.4,-0.2,2192.97,13.16,0.018,289.4
11,2021-12-25T03:00:00,2200.0,42.79,6.0312,-0.019,0.009,0.003,53.0,54.0,56.0,12.5,1504.2,308.8,-0.4,0.2,2192.964,13.16,0.021,295.3
11,2021-12-25T03:30:00,2200.0,42.79,6.0312,-0.02,0.011,0.021,54.0,58.0,56.0,12.5,1504.2,307.0,-0.6,-0.1,2192.939,13.16,0.022,298.8
11,2021-12-25T04:00:00,2200.0,42.79,6.0312,-0.027,0.012,-0.009,53.0,55.0,57.0,12.5,1504.2,307.3,-0.3,0.0,2192.952,13.16,0.029,294.0
11,2021-12-25T04:30:00,2200.0,42.79,6.0312,-0.031,0.004,0.016,54.0,56.0,58.0,12.5,1504.2,309.7,-0.2,-0.1,2192.958,13.16,0.031,277.3
11,2021-12-25T05:00:00,2200.0,42.79,6.0312,-0.025,0.025,0.013,53.0,56.0,59.0,12.5,1504.2,308.9,-0.2,-0.2,2192.931,13.16,0.035,315.0
11,2021-12-25T05:30:00,2200.0,42.79,6.0312,-0.035,0.034,0.01,55.0,56.0,57.0,12.5,1504.2,305.0,-0.5,0.2,2192.946,13.16,0.048,314.2
11,2021-12-25T06:00:00,2200.0,42.79,6.0312,-0.033,0.023,0.006,52.0,57.0,56.0,12.5,1504.2,299.3,-0.3,0.2,2192.958,13.16,0.04,304.9
11,2021-12-25T06:30:00,2200.0,42.79,6.0312,-0.017,0.03,0.017,53.0,54.0,58.0,12.5,1504.2,302.3,-0.1,0.2,2192.974,13.16,0.034,330.5
11,2021-12-25T07:00:00,2200.0,42.79,6.0312,-0.016,0.035,-0.001,52.0,56.0,59.0,12.5,1504.2,300.9,0.0,0.1,2192.965,13.16,0.038,335.4
11,2021-12-25T07:30:00,2200.0,42.79,6.0312,-0.025,0.035,0.005,53.0,56.0,58.0,12.5,1504.2,298.5,-0.6,0.0,2193.005,13.16,0.043,324.5
11,2021-12-25T08:00:00,2200.0,42.79,6.0312,-0.026,0.018,0.001,55.0,55.0,56.0,12.5,1504.2,293.8,-0.5,0.2,2193.013,13.16,0.031,304.7
11,2021-12-25T08:30:00,2200.0,42.79,6.0312,-0.017,0.024,0.007,53.0,57.0,58.0,12.5,1504.2,296.4,-0.7,0.0,2193.013,13.16,0.029,324.7
11,2021-12-25T09:00:00,2200.0,42.79,6.0312,-0.014,0.032,0.0,51.0,55.0,56.0,12.5,1504.2,295.8,-0.2,0.0,2193.118,13.16,0.034,336.4
11,2021-12-25T09:30:00,2200.0,42.79,6.0312,-0.017,0.032,0.0,52.0,55.0,58.0,12.5,1504.2,295.5,-0.4,0.2,2193.108,13.16,0.036,332.0
11,2021-12-25T10:00:00,2200.0,42.79,6.0312,-0.014,0.038,0.007,53.0,56.0,60.0,12.5,1504.2,296.1,-0.3,-0.1,2193.159,13.16,0.04,339.8
11,2021-12-25T10:30:00,2200.0,42.79,6.0312,0.004,0.034,0.007,51.0,56.0,57.0,12.5,1504.2,298.0,-0.4,0.2,2193.157,13.16,0.034,6.7
11,2021-12-25T11:00:00,2200.0,42.79,6.0312,-0.003,0.037,0.005,51.0,55.0,58.0,12.5,1504.2,297.6,-0.5,0.1,2193.154,13.16,0.037,355.4
11,2021-12-25T11:30:00,2200.0,42.79,6.0312,-0.009,0.023,0.011,52.0,56.0,52.0,12.5,1504.2,296.9,-0.3,0.1,2193.145,13.16,0.024,338.6
11,2021-12-25T12:00:00,2200.0,42.79,6.0312,0.0,0.033,0.002,53.0,53.0,53.0,12.5,1504.2,298.0,-0.5,-0.1,2193.18,13.16,0.033,0.0
11,2021-12-25T12:30:00,2200.0,42.79,6.0312,-0.005,0.025,0.016,51.0,55.0,56.0,12.5,1504.2,297.6,-0.3,0.2,2193.145,13.16,0.025,348.7
11,2021-12-25T13:00:00,2200.0,42.79,6.0312,0.004,0.029,0.001,48.0,54.0,53.0,12.5,1504.2,296.9,-0.2,0.1,2193.134,13.16,0.029,7.8
11,2021-12-25T13:30:00,2200.0,42.79,6.0312,-0.004,0.03,0.012,50.0,53.0,54.0,12.5,1504.2,297.8,-0.1,0.2,2193.114,13.16,0.03,352.4
11,2021-12-25T14:00:00,2200.0,42.79,6.0312,-0.002,0.029,0.005,54.0,53.0,56.0,12.5,1504.2,297.8,-0.4,-0.1,2193.079,13.16,0.029,356.1
11,2021-12-25T14:30:00,2200.0,42.79,6.0312,0.001,0.029,0.012,54.0,52.0,55.0,12.5,1504.2,296.5,-0.7,0.0,2193.091,13.16,0.029,2.0
11,2021-12-25T15:00:00,2200.0,42.79,6.0312,-0.006,0.029,0.003,51.0,53.0,53.0,12.5,1504.2,300.8,-0.3,0.0,2193.042,13.16,0.029,348.3
11,2021-12-25T15:30:00,2200.0,42.79,6.0312,0.0,0.023,0.008,50.0,56.0,56.0,12.5,1504.2,303.6,-0.3,-0.1,2193.05,13.16,0.023,0.0
11,2021-12-25T16:00:00,2200.0,42.79,6.0312,0.004,0.018,0.022,52.0,53.0,55.0,12.5,1504.2,302.9,-0.5,0.3,2193.01,13.16,0.018,12.5
11,2021-12-25T16:30:00,2200.0,42.79,6.0312,0.014,0.017,0.014,53.0,56.0,55.0,12.5,1504.2,298.6,-0.5,0.1,2193.009,13.16,0.022,39.5
11,2021-12-25T17:00:00,2200.0,42.79,6.0312,0.001,0.011,0.02,47.0,53.0,56.0,12.5,1504.2,298.6,-0.4,0.0,2193.021,13.16,0.011,5.2
11,2021-12-25T17:30:00,2200.0,42.79,6.0312,0.003,0.012,0.014,55.0,50.0,54.0,12.5,1504.2,301.8,-0.3,0.1,2192.999,13.16,0.012,14.0
11,2021-12-25T18:00:00,2200.0,42.79,6.0312,0.0,0.01,0.004,50.0,52.0,55.0,12.5,1504.2,303.3,-0.5,-0.1,2193.014,13.16,0.01,0.0
11,2021-12-25T18:30:00,2200.0,42.79,6.0312,-0.008,0.01,-0.006,51.0,54.0,56.0,12.5,1504.2,301.8,-0.3,0.0,2192.941,13.16,0.012,321.3
11,2021-12-25T19:00:00,2200.0,42.79,6.0312,-0.016,-0.002,0.012,49.0,55.0,54.0,12.5,1504.2,302.8,-0.2,-0.1,2192.971,13.16,0.016,262.9
11,2021-12-25T19:30:00,2200.0,42.79,6.0312,-0.018,0.0,0.0,51.0,51.0,58.0,12.5,1504.2,304.0,-0.6,0.2,2192.987,13.16,0.018,270.0
11,2021-12-25T20:00:00,2200.0,42.79,6.0312,-0.006,0.006,0.009,53.0,55.0,55.0,12.5,1504.2,307.5,-0.3,0.1,2192.994,13.16,0.008,315.0
11,2021-12-25T20:30:00,2200.0,42.79,6.0312,-0.017,0.0,-0.002,51.0,50.0,55.0,12.5,1504.2,310.7,-0.5,0.1,2193.015,13.16,0.017,270.0
11,2021-12-25T21:00:00,2200.0,42.79,6.0312,-0.014,0.001,0.012,49.0,56.0,54.0,12.5,1504.2,306.7,-0.2,-0.1,2192.994,13.16,0.014,274.1
